< < Back
Terminal Aerodrome Forecast


Current Version              Previous Versions:   1  2  3  4  5  6  7  8  9  

Terminal Aerodrome Forecast

929
FTUS42 KCHS 210000 AAA
TAFSAV
TAF AMD
KSAV 210057Z 2101/2124 12004KT P6SM SCT040 BKN150
     FM210300 VRB03KT P6SM VCSH SCT020 BKN040
     FM211000 31006KT P6SM SCT040 SCT090
     FM211600 28008G15KT P6SM SKC=

Latest METAR

305
SAUS80 KWBC 210800
MTRSAV
METAR KSAV 210753Z AUTO 00000KT 10SM FEW034 OVC075 19/17 A2995 RMK AO2
SLP141 T01940172 TSNO


USA.gov is the U.S. government's official web portal to all federal, state and local government web resources and services.